LOCATION_NAME,SAMPLE COLLECTION TIME,DOSE EQUIVALENT RATE (nSv/h),GAMMA COUNT RATE R02 (CPM),GAMMA COUNT RATE R03 (CPM),GAMMA COUNT RATE R04 (CPM),GAMMA COUNT RATE R05 (CPM),GAMMA COUNT RATE R06 (CPM),GAMMA COUNT RATE R07 (CPM),GAMMA COUNT RATE R08 (CPM),GAMMA COUNT RATE R09 (CPM),STATUS
AK: ANCHORAGE,01/01/2020 00:04:00,35.00,727.00,433.00,135.00,66.00,44.00,62.00,48.00,29.00,APPROVED
AK: ANCHORAGE,01/01/2020 01:04:00,35.00,733.00,438.00,136.00,68.00,42.00,61.00,48.00,28.00,APPROVED
AK: ANCHORAGE,01/01/2020 02:04:00,34.00,729.00,444.00,135.00,69.00,44.00,60.00,49.00,27.00,APPROVED
AK: ANCHORAGE,01/01/2020 03:04:00,37.00,742.00,444.00,134.00,66.00,42.00,61.00,49.00,27.00,APPROVED
AK: ANCHORAGE,01/01/2020 04:04:00,35.00,749.00,452.00,135.00,70.00,43.00,62.00,51.00,29.00,APPROVED
AK: ANCHORAGE,01/01/2020 05:05:00,38.00,837.00,534.00,157.00,84.00,50.00,70.00,55.00,28.00,APPROVED
AK: ANCHORAGE,01/01/2020 06:05:00,43.00,907.00,588.00,175.00,93.00,54.00,78.00,58.00,29.00,APPROVED
AK: ANCHORAGE,01/01/2020 07:05:00,43.00,975.00,651.00,185.00,107.00,60.00,87.00,60.00,30.00,APPROVED
AK: ANCHORAGE,01/01/2020 08:05:00,44.00,1133.00,770.00,220.00,121.00,68.00,94.00,66.00,31.00,APPROVED
AK: ANCHORAGE,01/01/2020 09:06:00,48.00,1163.00,802.00,225.00,126.00,70.00,99.00,68.00,30.00,APPROVED
AK: ANCHORAGE,01/01/2020 10:06:00,47.00,1182.00,818.00,238.00,132.00,71.00,105.00,72.00,31.00,APPROVED
AK: ANCHORAGE,01/01/2020 11:06:00,49.00,1190.00,824.00,233.00,131.00,70.00,104.00,69.00,31.00,APPROVED
AK: ANCHORAGE,01/01/2020 12:06:00,48.00,1138.00,776.00,221.00,128.00,67.00,99.00,70.00,30.00,APPROVED
AK: ANCHORAGE,01/01/2020 13:07:00,47.00,1090.00,742.00,217.00,122.00,66.00,98.00,66.00,29.00,APPROVED
AK: ANCHORAGE,01/01/2020 14:07:00,48.00,1071.00,721.00,209.00,119.00,64.00,94.00,65.00,28.00,APPROVED
AK: ANCHORAGE,01/01/2020 15:07:00,47.00,1116.00,765.00,225.00,125.00,67.00,99.00,69.00,29.00,APPROVED
AK: ANCHORAGE,01/01/2020 16:07:00,45.00,1044.00,707.00,210.00,119.00,65.00,96.00,65.00,28.00,APPROVED
AK: ANCHORAGE,01/01/2020 17:07:00,42.00,909.00,600.00,179.00,97.00,56.00,83.00,62.00,27.00,APPROVED
AK: ANCHORAGE,01/01/2020 18:08:00,38.00,849.00,544.00,166.00,91.00,53.00,78.00,57.00,27.00,APPROVED
AK: ANCHORAGE,01/01/2020 19:08:00,37.00,818.00,517.00,154.00,85.00,51.00,73.00,54.00,26.00,APPROVED
AK: ANCHORAGE,01/01/2020 20:08:00,37.00,784.00,497.00,152.00,80.00,49.00,70.00,53.00,25.00,APPROVED
AK: ANCHORAGE,01/01/2020 21:08:00,33.00,756.00,474.00,141.00,72.00,48.00,68.00,49.00,25.00,APPROVED
AK: ANCHORAGE,01/01/2020 22:09:00,34.00,744.00,462.00,139.00,73.00,47.00,65.00,50.00,25.00,APPROVED
AK: ANCHORAGE,01/01/2020 23:09:00,34.00,762.00,475.00,142.00,76.00,48.00,67.00,53.00,24.00,APPROVED
AK: ANCHORAGE,01/02/2020 00:09:00,34.00,789.00,500.00,151.00,79.00,48.00,71.00,54.00,24.00,APPROVED
AK: ANCHORAGE,01/02/2020 01:09:00,34.00,767.00,486.00,145.00,76.00,47.00,67.00,53.00,25.00,APPROVED
AK: ANCHORAGE,01/02/2020 02:10:00,33.00,764.00,476.00,143.00,75.00,47.00,65.00,50.00,24.00,APPROVED
AK: ANCHORAGE,01/02/2020 03:10:00,32.00,761.00,477.00,143.00,75.00,47.00,65.00,52.00,25.00,APPROVED
AK: ANCHORAGE,01/02/2020 04:10:00,34.00,749.00,461.00,140.00,72.00,45.00,64.00,50.00,24.00,APPROVED
AK: ANCHORAGE,01/02/2020 05:10:00,34.00,732.00,454.00,135.00,73.00,46.00,64.00,50.00,25.00,APPROVED
AK: ANCHORAGE,01/02/2020 20:35:00,34.00,768.00,469.00,139.00,73.00,46.00,65.00,49.00,25.00,APPROVED
AK: ANCHORAGE,01/02/2020 21:35:00,32.00,763.00,470.00,137.00,72.00,47.00,65.00,50.00,24.00,APPROVED
AK: ANCHORAGE,01/02/2020 22:35:00,33.00,774.00,478.00,140.00,74.00,46.00,64.00,49.00,25.00,APPROVED
AK: ANCHORAGE,01/02/2020 23:36:00,34.00,779.00,476.00,141.00,77.00,46.00,67.00,50.00,23.00,APPROVED
AK: ANCHORAGE,01/03/2020 00:36:00,33.00,770.00,472.00,141.00,74.00,46.00,66.00,49.00,24.00,APPROVED
AK: ANCHORAGE,01/03/2020 01:36:00,33.00,792.00,491.00,145.00,74.00,48.00,68.00,53.00,25.00,APPROVED
AK: ANCHORAGE,01/03/2020 02:36:00,36.00,851.00,543.00,156.00,87.00,52.00,73.00,52.00,26.00,APPROVED
AK: ANCHORAGE,01/03/2020 03:37:00,37.00,823.00,526.00,150.00,84.00,50.00,71.00,54.00,26.00,APPROVED
AK: ANCHORAGE,01/03/2020 04:37:00,38.00,832.00,529.00,153.00,84.00,49.00,71.00,52.00,24.00,APPROVED
AK: ANCHORAGE,01/03/2020 05:37:00,39.00,813.00,518.00,152.00,83.00,51.00,71.00,54.00,24.00,APPROVED
AK: ANCHORAGE,01/03/2020 06:37:00,36.00,792.00,498.00,147.00,79.00,49.00,69.00,52.00,24.00,APPROVED
AK: ANCHORAGE,01/03/2020 07:37:00,35.00,796.00,500.00,144.00,78.00,48.00,67.00,52.00,25.00,APPROVED
AK: ANCHORAGE,01/03/2020 08:38:00,36.00,803.00,506.00,148.00,81.00,49.00,70.00,50.00,24.00,APPROVED
AK: ANCHORAGE,01/03/2020 09:38:00,37.00,803.00,503.00,149.00,82.00,50.00,71.00,52.00,25.00,APPROVED
AK: ANCHORAGE,01/03/2020 10:38:00,35.00,785.00,490.00,143.00,77.00,48.00,68.00,52.00,24.00,APPROVED
AK: ANCHORAGE,01/03/2020 11:38:00,36.00,780.00,485.00,142.00,77.00,48.00,67.00,50.00,24.00,APPROVED
AK: ANCHORAGE,01/03/2020 12:39:00,37.00,800.00,504.00,147.00,78.00,47.00,69.00,51.00,24.00,APPROVED
AK: ANCHORAGE,01/03/2020 13:39:00,39.00,805.00,517.00,145.00,81.00,49.00,67.00,51.00,26.00,APPROVED
AK: ANCHORAGE,01/03/2020 14:39:00,41.00,813.00,529.00,152.00,87.00,52.00,72.00,51.00,25.00,APPROVED
AK: ANCHORAGE,01/03/2020 15:39:00,41.00,842.00,566.00,161.00,95.00,54.00,78.00,55.00,27.00,APPROVED
AK: ANCHORAGE,01/03/2020 16:40:00,44.00,865.00,588.00,167.00,102.00,56.00,83.00,57.00,25.00,APPROVED
AK: ANCHORAGE,01/03/2020 17:40:00,39.00,852.00,586.00,168.00,106.00,56.00,82.00,59.00,26.00,APPROVED
AK: ANCHORAGE,01/03/2020 18:40:00,39.00,844.00,573.00,171.00,102.00,56.00,81.00,57.00,27.00,APPROVED
AK: ANCHORAGE,01/03/2020 19:40:00,37.00,823.00,546.00,160.00,93.00,52.00,78.00,57.00,25.00,APPROVED
AK: ANCHORAGE,01/03/2020 20:40:00,38.00,821.00,532.00,154.00,84.00,50.00,72.00,53.00,26.00,APPROVED
AK: ANCHORAGE,01/03/2020 21:41:00,38.00,824.00,539.00,154.00,89.00,53.00,75.00,55.00,27.00,APPROVED
AK: ANCHORAGE,01/03/2020 22:41:00,38.00,824.00,543.00,160.00,91.00,54.00,75.00,56.00,27.00,APPROVED
AK: ANCHORAGE,01/03/2020 23:41:00,42.00,827.00,528.00,153.00,87.00,51.00,74.00,52.00,26.00,APPROVED
AK: ANCHORAGE,01/04/2020 00:41:00,41.00,825.00,526.00,155.00,85.00,53.00,72.00,52.00,24.00,APPROVED
AK: ANCHORAGE,01/04/2020 01:42:00,39.00,823.00,518.00,152.00,86.00,49.00,72.00,53.00,25.00,APPROVED
AK: ANCHORAGE,01/04/2020 02:42:00,38.00,808.00,519.00,148.00,81.00,49.00,72.00,52.00,25.00,APPROVED
AK: ANCHORAGE,01/04/2020 03:42:00,36.00,798.00,505.00,144.00,80.00,47.00,69.00,49.00,24.00,APPROVED
AK: ANCHORAGE,01/04/2020 04:42:00,36.00,781.00,499.00,144.00,78.00,48.00,67.00,51.00,26.00,APPROVED
AK: ANCHORAGE,01/04/2020 05:43:00,35.00,788.00,487.00,141.00,77.00,47.00,66.00,50.00,25.00,APPROVED
AK: ANCHORAGE,01/04/2020 06:43:00,35.00,787.00,487.00,140.00,75.00,48.00,66.00,50.00,25.00,APPROVED
AK: ANCHORAGE,01/04/2020 07:43:00,35.00,776.00,481.00,144.00,75.00,47.00,67.00,49.00,25.00,APPROVED
AK: ANCHORAGE,01/04/2020 08:43:00,36.00,779.00,491.00,143.00,75.00,48.00,67.00,47.00,25.00,APPROVED
AK: ANCHORAGE,01/04/2020 09:43:00,33.00,781.00,484.00,142.00,75.00,48.00,69.00,49.00,25.00,APPROVED
AK: ANCHORAGE,01/04/2020 10:44:00,33.00,761.00,479.00,141.00,74.00,48.00,69.00,48.00,25.00,APPROVED
AK: ANCHORAGE,01/04/2020 11:44:00,35.00,757.00,465.00,138.00,74.00,48.00,68.00,47.00,24.00,APPROVED
AK: ANCHORAGE,01/04/2020 12:44:00,35.00,746.00,468.00,138.00,73.00,45.00,68.00,47.00,24.00,APPROVED
AK: ANCHORAGE,01/04/2020 13:44:00,36.00,768.00,480.00,139.00,73.00,48.00,67.00,46.00,24.00,APPROVED
AK: ANCHORAGE,01/04/2020 14:45:00,32.00,763.00,475.00,141.00,73.00,47.00,69.00,47.00,24.00,APPROVED
AK: ANCHORAGE,01/04/2020 15:45:00,33.00,757.00,479.00,139.00,75.00,45.00,71.00,47.00,24.00,APPROVED
AK: ANCHORAGE,01/04/2020 16:45:00,32.00,750.00,472.00,136.00,73.00,46.00,70.00,45.00,24.00,APPROVED
AK: ANCHORAGE,01/04/2020 17:45:00,35.00,754.00,470.00,137.00,71.00,47.00,66.00,44.00,24.00,APPROVED
AK: ANCHORAGE,01/04/2020 18:46:00,32.00,757.00,465.00,138.00,71.00,46.00,65.00,47.00,23.00,APPROVED
AK: ANCHORAGE,01/04/2020 19:46:00,35.00,756.00,465.00,138.00,69.00,46.00,68.00,44.00,23.00,APPROVED
AK: ANCHORAGE,01/04/2020 20:46:00,33.00,763.00,469.00,138.00,72.00,48.00,67.00,46.00,23.00,APPROVED
AK: ANCHORAGE,01/04/2020 21:46:00,32.00,759.00,477.00,139.00,74.00,47.00,68.00,46.00,23.00,APPROVED
AK: ANCHORAGE,01/04/2020 22:46:00,32.00,771.00,475.00,137.00,71.00,47.00,66.00,49.00,23.00,APPROVED
AK: ANCHORAGE,01/04/2020 23:47:00,32.00,772.00,481.00,142.00,73.00,47.00,67.00,49.00,24.00,APPROVED
AK: ANCHORAGE,01/05/2020 00:47:00,35.00,776.00,473.00,138.00,75.00,46.00,68.00,50.00,24.00,APPROVED
AK: ANCHORAGE,01/05/2020 01:47:00,32.00,782.00,487.00,141.00,74.00,47.00,66.00,50.00,24.00,APPROVED
AK: ANCHORAGE,01/05/2020 02:47:00,33.00,783.00,482.00,142.00,76.00,47.00,66.00,47.00,24.00,APPROVED
AK: ANCHORAGE,01/05/2020 03:48:00,34.00,779.00,488.00,143.00,75.00,46.00,68.00,48.00,23.00,APPROVED
AK: ANCHORAGE,01/05/2020 04:48:00,34.00,777.00,479.00,139.00,74.00,46.00,69.00,45.00,23.00,APPROVED
AK: ANCHORAGE,01/05/2020 05:48:00,34.00,775.00,484.00,139.00,74.00,48.00,69.00,46.00,24.00,APPROVED
AK: ANCHORAGE,01/05/2020 06:48:00,33.00,776.00,481.00,142.00,75.00,47.00,69.00,46.00,23.00,APPROVED
AK: ANCHORAGE,01/05/2020 07:49:00,34.00,775.00,483.00,142.00,73.00,48.00,68.00,46.00,25.00,APPROVED
AK: ANCHORAGE,01/05/2020 08:49:00,33.00,785.00,491.00,143.00,76.00,47.00,69.00,47.00,24.00,APPROVED
AK: ANCHORAGE,01/05/2020 09:49:00,35.00,791.00,505.00,146.00,79.00,49.00,71.00,48.00,24.00,APPROVED
AK: ANCHORAGE,01/05/2020 10:49:00,33.00,792.00,490.00,145.00,77.00,48.00,72.00,46.00,25.00,APPROVED
AK: ANCHORAGE,01/05/2020 11:50:00,36.00,777.00,485.00,144.00,75.00,48.00,71.00,46.00,25.00,APPROVED
AK: ANCHORAGE,01/05/2020 12:50:00,33.00,777.00,487.00,144.00,76.00,48.00,70.00,45.00,24.00,APPROVED
AK: ANCHORAGE,01/05/2020 13:50:00,32.00,777.00,480.00,144.00,72.00,48.00,68.00,45.00,24.00,APPROVED
AK: ANCHORAGE,01/05/2020 14:50:00,33.00,794.00,501.00,148.00,79.00,50.00,71.00,47.00,25.00,APPROVED
AK: ANCHORAGE,01/05/2020 15:50:00,32.00,796.00,503.00,150.00,78.00,49.00,73.00,49.00,24.00,APPROVED
AK: ANCHORAGE,01/05/2020 16:51:00,33.00,802.00,505.00,148.00,79.00,48.00,73.00,45.00,23.00,APPROVED
AK: ANCHORAGE,01/05/2020 17:51:00,33.00,784.00,491.00,142.00,77.00,47.00,69.00,45.00,25.00,APPROVED
AK: ANCHORAGE,01/05/2020 18:51:00,32.00,791.00,493.00,146.00,76.00,49.00,69.00,46.00,25.00,APPROVED
AK: ANCHORAGE,01/05/2020 19:51:00,33.00,793.00,483.00,144.00,73.00,48.00,68.00,45.00,23.00,APPROVED
AK: ANCHORAGE,01/05/2020 20:52:00,33.00,781.00,491.00,140.00,75.00,48.00,68.00,45.00,23.00,APPROVED
AK: ANCHORAGE,01/05/2020 21:52:00,33.00,792.00,488.00,142.00,73.00,46.00,68.00,47.00,25.00,APPROVED
AK: ANCHORAGE,01/05/2020 22:52:00,31.00,797.00,495.00,145.00,75.00,47.00,67.00,49.00,25.00,APPROVED
AK: ANCHORAGE,01/05/2020 23:52:00,34.00,801.00,498.00,146.00,77.00,48.00,68.00,49.00,25.00,APPROVED
AK: ANCHORAGE,01/06/2020 00:53:00,33.00,808.00,507.00,145.00,78.00,49.00,69.00,51.00,24.00,APPROVED
AK: ANCHORAGE,01/06/2020 01:53:00,36.00,802.00,502.00,146.00,78.00,50.00,69.00,49.00,25.00,APPROVED
AK: ANCHORAGE,01/06/2020 02:53:00,34.00,796.00,504.00,146.00,79.00,50.00,71.00,49.00,24.00,APPROVED
AK: ANCHORAGE,01/06/2020 03:53:00,34.00,821.00,535.00,156.00,88.00,52.00,75.00,52.00,25.00,APPROVED
AK: ANCHORAGE,01/06/2020 04:53:00,35.00,837.00,570.00,163.00,95.00,56.00,83.00,53.00,27.00,APPROVED
AK: ANCHORAGE,01/06/2020 05:54:00,33.00,821.00,542.00,161.00,90.00,52.00,78.00,52.00,26.00,APPROVED
AK: ANCHORAGE,01/06/2020 06:54:00,33.00,830.00,549.00,158.00,94.00,53.00,79.00,52.00,25.00,APPROVED
AK: ANCHORAGE,01/06/2020 07:54:00,34.00,832.00,561.00,165.00,95.00,54.00,79.00,53.00,27.00,APPROVED
AK: ANCHORAGE,01/06/2020 08:54:00,35.00,861.00,590.00,169.00,102.00,58.00,85.00,56.00,27.00,APPROVED
AK: ANCHORAGE,01/06/2020 09:55:00,33.00,862.00,599.00,175.00,107.00,58.00,84.00,57.00,26.00,APPROVED
AK: ANCHORAGE,01/06/2020 10:55:00,35.00,860.00,597.00,179.00,101.00,58.00,86.00,56.00,27.00,APPROVED
AK: ANCHORAGE,01/06/2020 11:55:00,32.00,852.00,569.00,167.00,96.00,56.00,79.00,54.00,25.00,APPROVED
AK: ANCHORAGE,01/06/2020 12:55:00,33.00,854.00,555.00,163.00,93.00,54.00,76.00,53.00,25.00,APPROVED
AK: ANCHORAGE,01/06/2020 13:56:00,36.00,845.00,557.00,160.00,90.00,54.00,76.00,53.00,27.00,APPROVED
AK: ANCHORAGE,01/06/2020 14:56:00,34.00,851.00,556.00,162.00,94.00,54.00,77.00,54.00,26.00,APPROVED
AK: ANCHORAGE,01/06/2020 15:56:00,33.00,839.00,547.00,158.00,89.00,52.00,76.00,51.00,26.00,APPROVED
AK: ANCHORAGE,01/06/2020 16:56:00,34.00,820.00,523.00,154.00,84.00,49.00,74.00,51.00,24.00,APPROVED
AK: ANCHORAGE,01/06/2020 17:57:00,32.00,825.00,525.00,151.00,84.00,51.00,74.00,48.00,25.00,APPROVED
AK: ANCHORAGE,01/06/2020 18:57:00,33.00,823.00,525.00,147.00,82.00,49.00,74.00,48.00,24.00,APPROVED
AK: ANCHORAGE,01/06/2020 19:57:00,34.00,812.00,517.00,151.00,77.00,50.00,73.00,47.00,25.00,APPROVED
AK: ANCHORAGE,01/06/2020 20:57:00,33.00,808.00,512.00,149.00,79.00,50.00,71.00,47.00,25.00,APPROVED
AK: ANCHORAGE,01/06/2020 21:57:00,33.00,821.00,520.00,149.00,80.00,51.00,74.00,47.00,25.00,APPROVED
AK: ANCHORAGE,01/06/2020 22:58:00,34.00,830.00,525.00,152.00,82.00,50.00,73.00,50.00,25.00,APPROVED
AK: ANCHORAGE,01/06/2020 23:58:00,34.00,829.00,529.00,152.00,85.00,50.00,72.00,50.00,24.00,APPROVED
AK: ANCHORAGE,01/07/2020 00:58:00,33.00,836.00,539.00,156.00,88.00,53.00,74.00,50.00,25.00,APPROVED
AK: ANCHORAGE,01/07/2020 01:58:00,34.00,849.00,559.00,161.00,93.00,54.00,77.00,55.00,26.00,APPROVED
AK: ANCHORAGE,01/07/2020 02:59:00,34.00,838.00,539.00,159.00,88.00,51.00,76.00,52.00,24.00,APPROVED
AK: ANCHORAGE,01/07/2020 03:59:00,33.00,818.00,526.00,154.00,84.00,51.00,75.00,49.00,26.00,APPROVED
AK: ANCHORAGE,01/07/2020 04:59:00,33.00,815.00,525.00,150.00,82.00,49.00,74.00,48.00,25.00,APPROVED
AK: ANCHORAGE,01/07/2020 05:59:00,31.00,816.00,510.00,149.00,81.00,50.00,72.00,47.00,24.00,APPROVED
AK: ANCHORAGE,01/07/2020 07:00:00,33.00,818.00,512.00,152.00,76.00,50.00,72.00,46.00,24.00,APPROVED
AK: ANCHORAGE,01/07/2020 08:00:00,35.00,815.00,509.00,147.00,80.00,49.00,74.00,46.00,24.00,APPROVED
AK: ANCHORAGE,01/07/2020 09:00:00,33.00,814.00,500.00,146.00,78.00,49.00,71.00,46.00,24.00,APPROVED
AK: ANCHORAGE,01/07/2020 10:00:00,31.00,806.00,494.00,146.00,74.00,49.00,69.00,44.00,24.00,APPROVED
AK: ANCHORAGE,01/07/2020 11:00:00,32.00,806.00,493.00,143.00,74.00,47.00,72.00,44.00,24.00,APPROVED
AK: ANCHORAGE,01/07/2020 12:01:00,32.00,790.00,491.00,145.00,76.00,48.00,68.00,45.00,24.00,APPROVED
AK: ANCHORAGE,01/07/2020 13:01:00,32.00,794.00,488.00,143.00,76.00,47.00,69.00,44.00,24.00,APPROVED
AK: ANCHORAGE,01/07/2020 14:01:00,32.00,795.00,490.00,143.00,73.00,47.00,69.00,43.00,23.00,APPROVED
AK: ANCHORAGE,01/07/2020 15:01:00,33.00,788.00,496.00,141.00,75.00,47.00,70.00,44.00,24.00,APPROVED
AK: ANCHORAGE,01/07/2020 16:02:00,31.00,806.00,499.00,146.00,75.00,47.00,70.00,43.00,25.00,APPROVED
AK: ANCHORAGE,01/07/2020 17:02:00,33.00,807.00,510.00,149.00,77.00,49.00,72.00,45.00,24.00,APPROVED
AK: ANCHORAGE,01/07/2020 18:02:00,33.00,823.00,521.00,157.00,83.00,50.00,74.00,46.00,25.00,APPROVED
AK: ANCHORAGE,01/07/2020 19:02:00,31.00,814.00,520.00,151.00,82.00,50.00,73.00,47.00,25.00,APPROVED
AK: ANCHORAGE,01/07/2020 20:03:00,34.00,821.00,521.00,154.00,82.00,50.00,76.00,46.00,25.00,APPROVED
AK: ANCHORAGE,01/07/2020 21:03:00,34.00,828.00,533.00,154.00,84.00,52.00,75.00,47.00,24.00,APPROVED
AK: ANCHORAGE,01/07/2020 21:43:00,33.00,854.00,562.00,165.00,95.00,53.00,80.00,52.00,26.00,APPROVED
AK: ANCHORAGE,01/07/2020 22:49:00,33.00,822.00,514.00,147.00,77.00,48.00,70.00,49.00,24.00,APPROVED
AK: ANCHORAGE,01/07/2020 23:49:00,34.00,834.00,529.00,151.00,85.00,51.00,75.00,50.00,25.00,APPROVED
AK: ANCHORAGE,01/08/2020 00:50:00,34.00,838.00,529.00,154.00,84.00,51.00,73.00,51.00,25.00,APPROVED
AK: ANCHORAGE,01/08/2020 01:50:00,34.00,840.00,544.00,154.00,87.00,52.00,73.00,52.00,25.00,APPROVED
AK: ANCHORAGE,01/08/2020 02:50:00,36.00,864.00,567.00,160.00,93.00,54.00,78.00,54.00,25.00,APPROVED
AK: ANCHORAGE,01/08/2020 03:50:00,34.00,882.00,601.00,169.00,102.00,57.00,83.00,55.00,26.00,APPROVED
AK: ANCHORAGE,01/08/2020 04:51:00,34.00,864.00,574.00,167.00,98.00,57.00,84.00,55.00,26.00,APPROVED
AK: ANCHORAGE,01/08/2020 05:51:00,35.00,839.00,537.00,156.00,88.00,52.00,78.00,51.00,24.00,APPROVED
AK: ANCHORAGE,01/08/2020 06:51:00,37.00,824.00,519.00,152.00,83.00,51.00,75.00,47.00,26.00,APPROVED
AK: ANCHORAGE,01/08/2020 07:51:00,35.00,821.00,522.00,150.00,79.00,50.00,73.00,47.00,25.00,APPROVED
AK: ANCHORAGE,01/08/2020 08:51:00,35.00,827.00,525.00,152.00,79.00,47.00,74.00,46.00,25.00,APPROVED
AK: ANCHORAGE,01/08/2020 09:52:00,32.00,849.00,543.00,159.00,86.00,52.00,79.00,47.00,25.00,APPROVED
AK: ANCHORAGE,01/08/2020 10:52:00,33.00,842.00,549.00,160.00,89.00,54.00,76.00,52.00,25.00,APPROVED
AK: ANCHORAGE,01/08/2020 11:52:00,33.00,856.00,572.00,165.00,96.00,57.00,81.00,52.00,26.00,APPROVED
AK: ANCHORAGE,01/08/2020 12:52:00,33.00,837.00,553.00,158.00,91.00,52.00,77.00,51.00,26.00,APPROVED
AK: ANCHORAGE,01/08/2020 13:53:00,33.00,837.00,538.00,157.00,86.00,52.00,74.00,50.00,24.00,APPROVED
AK: ANCHORAGE,01/08/2020 14:53:00,34.00,860.00,572.00,168.00,94.00,54.00,82.00,53.00,25.00,APPROVED
AK: ANCHORAGE,01/08/2020 15:53:00,35.00,875.00,603.00,175.00,104.00,58.00,87.00,56.00,28.00,APPROVED
AK: ANCHORAGE,01/08/2020 16:53:00,33.00,885.00,598.00,175.00,104.00,59.00,87.00,56.00,27.00,APPROVED
AK: ANCHORAGE,01/08/2020 17:54:00,33.00,879.00,605.00,174.00,105.00,57.00,86.00,55.00,29.00,APPROVED
AK: ANCHORAGE,01/08/2020 18:54:00,35.00,859.00,586.00,171.00,103.00,57.00,85.00,55.00,26.00,APPROVED
AK: ANCHORAGE,01/08/2020 19:54:00,32.00,858.00,565.00,163.00,96.00,55.00,80.00,53.00,25.00,APPROVED
AK: ANCHORAGE,01/08/2020 20:54:00,34.00,873.00,578.00,167.00,98.00,56.00,81.00,55.00,27.00,APPROVED
AK: ANCHORAGE,01/08/2020 21:54:00,34.00,873.00,587.00,168.00,101.00,55.00,82.00,55.00,27.00,APPROVED
AK: ANCHORAGE,01/08/2020 22:55:00,32.00,856.00,577.00,167.00,96.00,54.00,79.00,54.00,26.00,APPROVED
AK: ANCHORAGE,01/08/2020 23:55:00,34.00,843.00,544.00,160.00,89.00,52.00,77.00,52.00,25.00,APPROVED
AK: ANCHORAGE,01/09/2020 00:55:00,33.00,832.00,533.00,154.00,86.00,52.00,73.00,52.00,25.00,APPROVED
AK: ANCHORAGE,01/09/2020 01:55:00,32.00,833.00,524.00,151.00,85.00,51.00,71.00,52.00,25.00,APPROVED
AK: ANCHORAGE,01/09/2020 02:56:00,32.00,843.00,542.00,153.00,84.00,51.00,72.00,49.00,26.00,APPROVED
AK: ANCHORAGE,01/09/2020 03:56:00,35.00,844.00,529.00,151.00,84.00,50.00,72.00,49.00,25.00,APPROVED
AK: ANCHORAGE,01/09/2020 04:56:00,36.00,844.00,531.00,154.00,83.00,51.00,73.00,49.00,24.00,APPROVED
AK: ANCHORAGE,01/09/2020 05:56:00,36.00,836.00,530.00,152.00,81.00,51.00,74.00,47.00,25.00,APPROVED
AK: ANCHORAGE,01/09/2020 06:57:00,34.00,828.00,522.00,150.00,79.00,50.00,73.00,46.00,25.00,APPROVED
AK: ANCHORAGE,01/09/2020 07:57:00,35.00,824.00,521.00,154.00,80.00,50.00,73.00,47.00,25.00,APPROVED
AK: ANCHORAGE,01/09/2020 08:57:00,34.00,826.00,518.00,151.00,79.00,50.00,72.00,45.00,25.00,APPROVED
AK: ANCHORAGE,01/09/2020 09:57:00,34.00,823.00,515.00,149.00,81.00,48.00,73.00,46.00,25.00,APPROVED
AK: ANCHORAGE,01/09/2020 10:58:00,34.00,820.00,516.00,152.00,79.00,51.00,74.00,47.00,24.00,APPROVED
AK: ANCHORAGE,01/09/2020 11:58:00,35.00,815.00,516.00,152.00,79.00,50.00,75.00,46.00,25.00,APPROVED
AK: ANCHORAGE,01/09/2020 12:58:00,34.00,812.00,512.00,150.00,78.00,50.00,73.00,46.00,24.00,APPROVED
AK: ANCHORAGE,01/09/2020 13:58:00,34.00,806.00,502.00,150.00,79.00,48.00,72.00,44.00,25.00,APPROVED
AK: ANCHORAGE,01/09/2020 14:58:00,33.00,796.00,508.00,146.00,77.00,49.00,73.00,44.00,24.00,APPROVED
AK: ANCHORAGE,01/09/2020 15:59:00,34.00,797.00,503.00,146.00,76.00,50.00,71.00,45.00,24.00,APPROVED
AK: ANCHORAGE,01/09/2020 16:59:00,33.00,788.00,496.00,145.00,76.00,48.00,70.00,45.00,23.00,APPROVED
AK: ANCHORAGE,01/09/2020 17:59:00,33.00,796.00,503.00,145.00,76.00,48.00,70.00,45.00,24.00,APPROVED
AK: ANCHORAGE,01/09/2020 18:59:00,32.00,803.00,505.00,146.00,78.00,48.00,73.00,46.00,26.00,APPROVED
AK: ANCHORAGE,01/09/2020 20:00:00,35.00,814.00,515.00,149.00,81.00,48.00,71.00,49.00,24.00,APPROVED
AK: ANCHORAGE,01/09/2020 21:00:00,34.00,815.00,512.00,146.00,79.00,51.00,70.00,50.00,24.00,APPROVED
AK: ANCHORAGE,01/09/2020 22:00:00,35.00,808.00,513.00,147.00,82.00,50.00,69.00,50.00,26.00,APPROVED
AK: ANCHORAGE,01/09/2020 23:00:00,33.00,824.00,529.00,152.00,88.00,51.00,73.00,53.00,25.00,APPROVED
AK: ANCHORAGE,01/10/2020 00:01:00,34.00,823.00,539.00,158.00,91.00,53.00,75.00,53.00,26.00,APPROVED
AK: ANCHORAGE,01/10/2020 01:01:00,35.00,817.00,522.00,152.00,85.00,51.00,75.00,53.00,24.00,APPROVED
AK: ANCHORAGE,01/10/2020 02:01:00,35.00,800.00,512.00,147.00,82.00,49.00,70.00,50.00,25.00,APPROVED
AK: ANCHORAGE,01/10/2020 03:01:00,34.00,796.00,500.00,145.00,77.00,47.00,69.00,49.00,24.00,APPROVED
AK: ANCHORAGE,01/10/2020 04:01:00,33.00,795.00,497.00,141.00,78.00,48.00,70.00,49.00,24.00,APPROVED
AK: ANCHORAGE,01/10/2020 05:02:00,32.00,791.00,495.00,141.00,78.00,47.00,70.00,46.00,25.00,APPROVED
AK: ANCHORAGE,01/10/2020 06:02:00,31.00,783.00,496.00,140.00,78.00,49.00,70.00,46.00,24.00,APPROVED
AK: ANCHORAGE,01/10/2020 07:02:00,31.00,782.00,493.00,143.00,77.00,48.00,70.00,46.00,24.00,APPROVED
AK: ANCHORAGE,01/10/2020 08:02:00,32.00,770.00,487.00,142.00,79.00,50.00,71.00,45.00,25.00,APPROVED
AK: ANCHORAGE,01/10/2020 09:03:00,31.00,768.00,483.00,143.00,76.00,48.00,71.00,46.00,24.00,APPROVED
AK: ANCHORAGE,01/10/2020 10:03:00,32.00,767.00,483.00,139.00,73.00,48.00,70.00,44.00,22.00,APPROVED
AK: ANCHORAGE,01/10/2020 11:03:00,32.00,761.00,471.00,140.00,75.00,48.00,69.00,44.00,24.00,APPROVED
AK: ANCHORAGE,01/10/2020 12:03:00,32.00,758.00,472.00,140.00,74.00,46.00,68.00,46.00,23.00,APPROVED
AK: ANCHORAGE,01/10/2020 13:04:00,32.00,760.00,476.00,140.00,72.00,48.00,69.00,44.00,23.00,APPROVED
AK: ANCHORAGE,01/10/2020 14:04:00,32.00,760.00,473.00,139.00,73.00,47.00,68.00,43.00,24.00,APPROVED
AK: ANCHORAGE,01/10/2020 15:04:00,33.00,758.00,468.00,137.00,71.00,48.00,69.00,45.00,23.00,APPROVED
AK: ANCHORAGE,01/10/2020 16:04:00,32.00,759.00,468.00,136.00,70.00,45.00,67.00,44.00,24.00,APPROVED
AK: ANCHORAGE,01/10/2020 17:04:00,32.00,757.00,466.00,136.00,67.00,46.00,66.00,43.00,23.00,APPROVED
AK: ANCHORAGE,01/10/2020 18:05:00,32.00,769.00,476.00,142.00,70.00,46.00,69.00,44.00,23.00,APPROVED
AK: ANCHORAGE,01/10/2020 19:05:00,32.00,790.00,483.00,143.00,73.00,48.00,69.00,43.00,24.00,APPROVED
AK: ANCHORAGE,01/10/2020 20:05:00,34.00,789.00,491.00,141.00,74.00,47.00,68.00,42.00,23.00,APPROVED
AK: ANCHORAGE,01/10/2020 21:05:00,32.00,790.00,489.00,142.00,74.00,48.00,69.00,44.00,24.00,APPROVED
AK: ANCHORAGE,01/10/2020 22:06:00,33.00,775.00,483.00,141.00,72.00,47.00,68.00,47.00,24.00,APPROVED
AK: ANCHORAGE,01/10/2020 23:06:00,31.00,773.00,484.00,137.00,76.00,50.00,66.00,49.00,24.00,APPROVED
AK: ANCHORAGE,01/11/2020 00:06:00,31.00,776.00,485.00,143.00,77.00,47.00,66.00,50.00,24.00,APPROVED
AK: ANCHORAGE,01/11/2020 01:06:00,33.00,784.00,483.00,141.00,77.00,47.00,66.00,50.00,23.00,APPROVED
AK: ANCHORAGE,01/11/2020 02:07:00,33.00,778.00,483.00,140.00,76.00,48.00,67.00,49.00,24.00,APPROVED
AK: ANCHORAGE,01/11/2020 03:07:00,32.00,780.00,485.00,144.00,75.00,48.00,67.00,49.00,24.00,APPROVED
AK: ANCHORAGE,01/11/2020 04:07:00,31.00,784.00,484.00,138.00,73.00,48.00,67.00,48.00,25.00,APPROVED
AK: ANCHORAGE,01/11/2020 05:07:00,33.00,783.00,482.00,142.00,76.00,47.00,69.00,47.00,24.00,APPROVED
AK: ANCHORAGE,01/11/2020 06:07:00,31.00,775.00,481.00,142.00,76.00,47.00,69.00,46.00,24.00,APPROVED
AK: ANCHORAGE,01/11/2020 07:08:00,31.00,770.00,483.00,139.00,75.00,48.00,69.00,47.00,24.00,APPROVED
AK: ANCHORAGE,01/11/2020 08:08:00,32.00,776.00,479.00,141.00,76.00,47.00,69.00,45.00,25.00,APPROVED
AK: ANCHORAGE,01/11/2020 09:08:00,33.00,781.00,481.00,139.00,73.00,48.00,68.00,44.00,24.00,APPROVED
AK: ANCHORAGE,01/11/2020 10:08:00,30.00,772.00,482.00,139.00,73.00,47.00,68.00,44.00,23.00,APPROVED